Whidbey Island, WA
on Friday, December 28, 2012

Friday
Previous Day Next Day
Daily Summary
 ActualAverageRecord
Temperature
Mean Temperature °F °F  
Max Temperature 44°F 43°F 54°F (2011)
Min Temperature 39°F 33°F 22°F (1996)
Degree Days
Heating Degree Days 24    
Moisture
Dew Point 36°F   
Average Humidity 80    
Maximum Humidity 89    
Minimum Humidity 73    
Precipitation
Precipitation 0.01 in in in ()
Wind
Wind Speed 8 mph   
Max Wind Speed 14 mph   
Max Gust Speed mph   
Visibility 10 miles   
Events Rain   
Averages and records for this station are not official NWS values.
Key: T is trace of precipitation, MM is missing value
Source: NWS Daily Summary
Seasonal Weather Averages
Time(PST)TemperatureDew PointHumidity Pressure Visibility Wind DirectionWind SpeedGust SpeedPrecipitationEvents Conditions
12:56 AM 41.0°F 37.0°F 86% 30.16 in 10.0 miles East 9.2 mph - N/A   Mostly Cloudy
1:56 AM 41.0°F 37.0°F 86% 30.17 in 10.0 miles East 10.4 mph - N/A   Overcast
2:56 AM 41.0°F 36.0°F 82% 30.16 in 10.0 miles East 8.1 mph - N/A   Overcast
3:56 AM 41.0°F 36.0°F 82% 30.15 in 10.0 miles ESE 8.1 mph - N/A   Overcast
4:56 AM 41.0°F 36.0°F 82% 30.14 in 10.0 miles East 9.2 mph - N/A   Overcast
5:56 AM 42.1°F 36.0°F 79% 30.14 in 10.0 miles East 11.5 mph - N/A   Overcast
6:35 AM 41.0°F 35.6°F 81% 30.11 in 8.0 miles East 13.8 mph - N/A   Overcast
6:56 AM 41.0°F 35.1°F 79% 30.13 in 8.0 miles ESE 11.5 mph - N/A   Overcast
7:56 AM 39.9°F 34.0°F 79% 30.13 in 10.0 miles East 10.4 mph - N/A   Overcast
8:56 AM 42.1°F 34.0°F 73% 30.14 in 10.0 miles East 8.1 mph - N/A   Overcast
9:56 AM 43.0°F 36.0°F 76% 30.14 in 10.0 miles East 10.4 mph - N/A   Overcast
10:56 AM 43.0°F 36.0°F 76% 30.14 in 10.0 miles East 6.9 mph - N/A   Overcast
11:56 AM 44.1°F 36.0°F 73% 30.14 in 10.0 miles ESE 5.8 mph - N/A   Overcast
12:56 PM 44.1°F 36.0°F 73% 30.13 in 10.0 miles ESE 8.1 mph - N/A   Overcast
1:56 PM 44.1°F 37.0°F 76% 30.13 in 10.0 miles East 8.1 mph - N/A   Overcast
2:56 PM 44.1°F 37.0°F 76% 30.14 in 10.0 miles East 5.8 mph - N/A   Overcast
3:56 PM 44.1°F 36.0°F 73% 30.14 in 10.0 miles East 4.6 mph - N/A   Overcast
4:56 PM 42.1°F 36.0°F 79% 30.14 in 10.0 miles East 4.6 mph - N/A   Overcast
5:56 PM 41.0°F 36.0°F 82% 30.14 in 10.0 miles ESE 5.8 mph - 0.00 in Rain Light Rain
6:56 PM 41.0°F 36.0°F 82% 30.15 in 10.0 miles East 4.6 mph - 0.00 in Rain Light Rain
7:56 PM 41.0°F 36.0°F 82% 30.16 in 10.0 miles Calm Calm - 0.00 in Rain Light Rain
8:56 PM 41.0°F 36.0°F 82% 30.16 in 10.0 miles Calm Calm - 0.01 in Rain Light Rain
9:56 PM 39.9°F 36.0°F 86% 30.17 in 10.0 miles ESE 5.8 mph - 0.00 in Rain Light Rain
10:56 PM 39.0°F 36.0°F 89% 30.17 in 10.0 miles Variable 4.6 mph - 0.00 in Rain Light Rain
11:56 PM 39.0°F 36.0°F 89% 30.17 in 10.0 miles ESE 3.5 mph - 0.00 in Rain Light Rain
Moon Phase
Dec. 28 Jan. 04 Jan. 11 Jan. 18 Jan. 26
Sunrise:08:01 AM (PST) Moon Rise:05:10 PM (PST)12/28
Sunset:04:23 PM (PST) Moon Set:07:55 AM (PST)12/28

Copyright © 2014 The Weather Underground, Inc.